| time (UTC) | temp C | wind direction | speed KPH | gust KPH | rain 1hr cm | rain 24hr cm | rain mn cm | humidity % | barometer mb |
| 20260508145503 | 14 | 109 | 4.8 | 11.3 | 0.00 | 0.00 | 0.00 | 39 | 1017.0 |
| 20260508145003 | 13 | 128 | 4.8 | 11.3 | 0.00 | 0.00 | 0.00 | 40 | 1016.9 |
| 20260508144524 | 13 | 105 | 4.8 | 11.3 | 0.00 | 0.00 | 0.00 | 39 | 1016.9 |
| 20260508144003 | 13 | 108 | 3.2 | 9.7 | 0.00 | 0.00 | 0.00 | 42 | 1016.9 |
| 20260508143503 | 13 | 154 | 3.2 | 11.3 | 0.00 | 0.00 | 0.00 | 43 | 1016.9 |
| 20260508143024 | 13 | 113 | 4.8 | 14.5 | 0.00 | 0.00 | 0.00 | 41 | 1016.9 |
| 20260508142503 | 13 | 82 | 4.8 | 14.5 | 0.00 | 0.00 | 0.00 | 41 | 1017.0 |
| 20260508142003 | 12 | 63 | 3.2 | 11.3 | 0.00 | 0.00 | 0.00 | 42 | 1016.9 |
| 20260508141503 | 12 | 139 | 3.2 | 9.7 | 0.00 | 0.00 | 0.00 | 40 | 1016.9 |
| 20260508141045 | 12 | 110 | 3.2 | 9.7 | 0.00 | 0.00 | 0.00 | 43 | 1016.9 |
| 20260508140503 | 13 | 93 | 3.2 | 11.3 | 0.00 | 0.00 | 0.00 | 43 | 1016.9 |
| 20260508140003 | 12 | 43 | 3.2 | 11.3 | 0.00 | 0.00 | 0.00 | 42 | 1016.9 |
| 20260508135503 | 12 | 33 | 3.2 | 9.7 | 0.00 | 0.00 | 0.00 | 42 | 1017.0 |
| 20260508135003 | 12 | 358 | 3.2 | 8.0 | 0.00 | 0.00 | 0.00 | 43 | 1016.8 |
| 20260508134524 | 11 | 349 | 3.2 | 6.4 | 0.00 | 0.00 | 0.00 | 43 | 1016.8 |
| 20260508134003 | 11 | 38 | 1.6 | 6.4 | 0.00 | 0.00 | 0.00 | 46 | 1016.8 |
| 20260508133503 | 11 | 309 | 1.6 | 6.4 | 0.00 | 0.00 | 0.00 | 43 | 1016.7 |
| 20260508133024 | 11 | 300 | 1.6 | 4.8 | 0.00 | 0.00 | 0.00 | 47 | 1016.7 |
| 20260508132503 | 11 | 311 | 3.2 | 6.4 | 0.00 | 0.00 | 0.00 | 43 | 1016.6 |
| 20260508132003 | 10 | 316 | 3.2 | 6.4 | 0.00 | 0.00 | 0.00 | 44 | 1016.6 |
| 20260508131503 | 10 | 308 | 3.2 | 6.4 | 0.00 | 0.00 | 0.00 | 47 | 1016.5 |
| 20260508131003 | 10 | 308 | 3.2 | 6.4 | 0.00 | 0.00 | 0.00 | 47 | 1016.5 |
| 20260508130503 | 10 | 318 | 3.2 | 6.4 | 0.00 | 0.00 | 0.00 | 48 | 1016.4 |
| 20260508130003 | 9 | 298 | 3.2 | 6.4 | 0.00 | 0.00 | 0.00 | 50 | 1016.4 |
| 20260508125524 | 9 | 275 | 3.2 | 6.4 | 0.00 | 0.00 | 0.00 | 52 | 1016.4 |
| 20260508125003 | 9 | 292 | 1.6 | 4.8 | 0.00 | 0.00 | 0.00 | 50 | 1016.4 |
| 20260508124524 | 8 | 354 | 1.6 | 4.8 | 0.00 | 0.00 | 0.00 | 50 | 1016.4 |
| 20260508124003 | 8 | 356 | 1.6 | 4.8 | 0.00 | 0.00 | 0.00 | 48 | 1016.3 |
| 20260508123503 | 8 | 317 | 1.6 | 3.2 | 0.00 | 0.00 | 0.00 | 52 | 1016.3 |
| 20260508123003 | 7 | 342 | 1.6 | 4.8 | 0.00 | 0.00 | 0.00 | 56 | 1016.2 |
| 20260508122503 | 7 | 7 | 1.6 | 4.8 | 0.00 | 0.00 | 0.00 | 56 | 1016.3 |
| 20260508122024 | 6 | 105 | 1.6 | 4.8 | 0.00 | 0.00 | 0.00 | 60 | 1016.2 |
| 20260508121503 | 6 | 127 | 1.6 | 4.8 | 0.00 | 0.00 | 0.00 | 61 | 1016.2 |
| 20260508121003 | 6 | 142 | 1.6 | 4.8 | 0.00 | 0.00 | 0.00 | 63 | 1016.1 |
| 20260508120503 | 5 | 128 | 1.6 | 4.8 | 0.00 | 0.00 | 0.00 | 68 | 1016.0 |
| 20260508120003 | 5 | 113 | 0.0 | 3.2 | 0.00 | 0.00 | 0.00 | 73 | 1016.0 |
| 20260508115503 | 5 | 113 | 0.0 | 3.2 | 0.00 | 0.00 | 0.00 | 72 | 1015.9 |
| 20260508115024 | 5 | 113 | 0.0 | 3.2 | 0.00 | 0.00 | 0.00 | 76 | 1015.8 |
| 20260508114503 | 4 | 114 | 1.6 | 4.8 | 0.00 | 0.00 | 0.00 | 77 | 1015.6 |
| 20260508114003 | 4 | 96 | 3.2 | 6.4 | 0.00 | 0.00 | 0.00 | 76 | 1015.6 |
| 20260508113503 | 4 | 91 | 3.2 | 6.4 | 0.00 | 0.00 | 0.00 | 77 | 1015.6 |
| 20260508113004 | 3 | 93 | 1.6 | 6.4 | 0.00 | 0.00 | 0.00 | 77 | 1015.5 |
| 20260508112503 | 3 | 76 | 0.0 | 4.8 | 0.00 | 0.00 | 0.00 | 78 | 1015.5 |
| 20260508112003 | 3 | 136 | 0.0 | 3.2 | 0.00 | 0.00 | 0.00 | 78 | 1015.4 |
| 20260508111503 | 3 | 136 | 0.0 | 3.2 | 0.00 | 0.00 | 0.00 | 77 | 1015.3 |
| 20260508111003 | 3 | 136 | 0.0 | 3.2 | 0.00 | 0.00 | 0.00 | 76 | 1015.3 |
| 20260508110503 | 3 | 136 | 1.6 | 4.8 | 0.00 | 0.00 | 0.00 | 75 | 1015.2 |
| 20260508110004 | 4 | 136 | 0.0 | 4.8 | 0.00 | 0.00 | 0.00 | 74 | 1015.2 |
| 20260508105503 | 4 | 136 | 1.6 | 3.2 | 0.00 | 0.00 | 0.00 | 74 | 1015.2 |
| 20260508105003 | 4 | 128 | 1.6 | 3.2 | 0.00 | 0.00 | 0.00 | 73 | 1015.0 |
| 20260508104503 | 5 | 108 | 1.6 | 6.4 | 0.00 | 0.00 | 0.00 | 72 | 1014.8 |
| 20260508104003 | 5 | 73 | 1.6 | 6.4 | 0.00 | 0.00 | 0.00 | 71 | 1014.8 |
| 20260508103503 | 5 | 52 | 3.2 | 6.4 | 0.00 | 0.00 | 0.00 | 70 | 1014.7 |
| 20260508103004 | 5 | 347 | 3.2 | 6.4 | 0.00 | 0.00 | 0.00 | 68 | 1014.6 |
| 20260508102503 | 5 | 283 | 3.2 | 12.9 | 0.00 | 0.00 | 0.00 | 65 | 1014.4 |
| 20260508102003 | 6 | 295 | 4.8 | 12.9 | 0.00 | 0.00 | 0.00 | 64 | 1014.4 |
| 20260508101524 | 6 | 317 | 4.8 | 12.9 | 0.00 | 0.00 | 0.00 | 65 | 1014.3 |
| 20260508101003 | 6 | 319 | 4.8 | 12.9 | 0.00 | 0.00 | 0.00 | 65 | 1014.3 |
| 20260508100503 | 6 | 321 | 6.4 | 16.1 | 0.00 | 0.00 | 0.00 | 66 | 1014.2 |
| 20260508100003 | 6 | 322 | 6.4 | 16.1 | 0.00 | 0.00 | 0.00 | 66 | 1014.3 |
| 20260508095503 | 6 | 319 | 6.4 | 14.5 | 0.00 | 0.00 | 0.00 | 66 | 1014.2 |
| 20260508095003 | 6 | 315 | 6.4 | 17.7 | 0.00 | 0.00 | 0.00 | 66 | 1014.4 |
| 20260508094503 | 6 | 312 | 8.0 | 17.7 | 0.00 | 0.00 | 0.00 | 66 | 1014.3 |
| 20260508094003 | 6 | 319 | 6.4 | 14.5 | 0.00 | 0.03 | 0.00 | 67 | 1014.4 |
| 20260508093503 | 6 | 326 | 4.8 | 14.5 | 0.00 | 0.03 | 0.00 | 67 | 1014.3 |
| 20260508093003 | 6 | 318 | 4.8 | 9.7 | 0.00 | 0.03 | 0.00 | 67 | 1014.3 |
| 20260508092503 | 6 | 327 | 4.8 | 9.7 | 0.00 | 0.03 | 0.00 | 68 | 1014.4 |
| 20260508092003 | 5 | 349 | 4.8 | 16.1 | 0.00 | 0.03 | 0.00 | 69 | 1014.4 |
| 20260508091503 | 5 | 355 | 3.2 | 16.1 | 0.00 | 0.03 | 0.00 | 69 | 1014.4 |
| 20260508091003 | 5 | 355 | 4.8 | 12.9 | 0.00 | 0.03 | 0.00 | 70 | 1014.3 |
| 20260508090503 | 5 | 6 | 4.8 | 12.9 | 0.00 | 0.03 | 0.00 | 70 | 1014.3 |
| 20260508090003 | 5 | 17 | 3.2 | 9.7 | 0.00 | 0.03 | 0.00 | 70 | 1014.3 |
| 20260508085503 | 5 | 25 | 3.2 | 11.3 | 0.00 | 0.03 | 0.00 | 71 | 1014.3 |
| 20260508085003 | 5 | 17 | 4.8 | 12.9 | 0.00 | 0.03 | 0.00 | 71 | 1014.4 |
| 20260508084503 | 5 | 14 | 3.2 | 12.9 | 0.00 | 0.03 | 0.00 | 72 | 1014.3 |
| 20260508084003 | 5 | 23 | 1.6 | 9.7 | 0.00 | 0.03 | 0.00 | 73 | 1014.4 |
| 20260508083503 | 5 | 3 | 1.6 | 4.8 | 0.00 | 0.03 | 0.00 | 74 | 1014.4 |
| 20260508083003 | 5 | 347 | 1.6 | 3.2 | 0.00 | 0.03 | 0.00 | 76 | 1014.4 |
| 20260508082503 | 5 | 18 | 1.6 | 4.8 | 0.00 | 0.03 | 0.00 | 74 | 1014.4 |
| 20260508082003 | 5 | 21 | 1.6 | 8.0 | 0.00 | 0.03 | 0.00 | 73 | 1014.4 |
| 20260508081524 | 5 | 14 | 1.6 | 8.0 | 0.00 | 0.03 | 0.00 | 74 | 1014.4 |
| 20260508081003 | 5 | 35 | 1.6 | 6.4 | 0.00 | 0.03 | 0.00 | 75 | 1014.4 |
| 20260508080503 | 6 | 350 | 1.6 | 6.4 | 0.00 | 0.03 | 0.00 | 75 | 1014.3 |
| 20260508080003 | 6 | 277 | 1.6 | 6.4 | 0.00 | 0.03 | 0.00 | 74 | 1014.2 |
| 20260508075503 | 6 | 178 | 1.6 | 6.4 | 0.00 | 0.03 | 0.00 | 75 | 1014.2 |
| 20260508075003 | 6 | 39 | 3.2 | 6.4 | 0.00 | 0.03 | 0.00 | 75 | 1014.2 |
| 20260508074503 | 6 | 351 | 3.2 | 11.3 | 0.00 | 0.03 | 0.00 | 73 | 1014.2 |
| 20260508074003 | 6 | 321 | 1.6 | 12.9 | 0.00 | 0.03 | 0.00 | 74 | 1014.1 |
| 20260508073503 | 6 | 321 | 1.6 | 12.9 | 0.00 | 0.03 | 0.00 | 74 | 1014.2 |
| 20260508073003 | 6 | 313 | 3.2 | 9.7 | 0.00 | 0.03 | 0.00 | 74 | 1014.2 |
| 20260508072503 | 6 | 305 | 3.2 | 12.9 | 0.00 | 0.03 | 0.00 | 75 | 1014.1 |
| 20260508072003 | 6 | 316 | 4.8 | 12.9 | 0.00 | 0.03 | 0.00 | 75 | 1014.1 |
| 20260508071503 | 6 | 329 | 3.2 | 9.7 | 0.00 | 0.03 | 0.00 | 76 | 1014.1 |
| 20260508071003 | 6 | 341 | 3.2 | 9.7 | 0.00 | 0.03 | 0.00 | 75 | 1014.2 |
| 20260508070510 | 6 | 348 | 3.2 | 14.5 | 0.00 | 0.03 | 0.00 | 75 | 1014.2 |
| 20260508070003 | 6 | 347 | 3.2 | 14.5 | 0.00 | 0.03 | 0.00 | 76 | 1014.2 |
| 20260508065503 | 6 | 333 | 3.2 | 14.5 | 0.00 | 0.03 | 0.00 | 77 | 1014.3 |
| 20260508065003 | 6 | 341 | 3.2 | 12.9 | 0.00 | 0.03 | 0.00 | 77 | 1014.2 |
| 20260508064504 | 6 | 349 | 4.8 | 12.9 | 0.00 | 0.03 | 0.00 | 77 | 1014.2 |
| 20260508064003 | 6 | 348 | 4.8 | 14.5 | 0.00 | 0.05 | 0.00 | 77 | 1014.2 |
| 20260508063503 | 6 | 341 | 3.2 | 14.5 | 0.00 | 0.05 | 0.00 | 77 | 1014.2 |
| 20260508063024 | 6 | 326 | 3.2 | 12.9 | 0.00 | 0.05 | 0.00 | 78 | 1014.4 |
| 20260508062503 | 6 | 331 | 3.2 | 6.4 | 0.00 | 0.05 | 0.00 | 78 | 1014.4 |
| 20260508062024 | 6 | 334 | 3.2 | 12.9 | 0.00 | 0.05 | 0.00 | 78 | 1014.4 |
| 20260508061503 | 6 | 326 | 4.8 | 12.9 | 0.00 | 0.05 | 0.00 | 78 | 1014.5 |
| 20260508061003 | 7 | 334 | 4.8 | 9.7 | 0.00 | 0.05 | 0.00 | 78 | 1014.4 |
| 20260508060503 | 7 | 336 | 3.2 | 9.7 | 0.00 | 0.05 | 0.00 | 78 | 1014.5 |
| 20260508060003 | 7 | 332 | 3.2 | 9.7 | 0.00 | 0.05 | 0.00 | 78 | 1014.5 |
| 20260508055503 | 7 | 338 | 3.2 | 8.0 | 0.00 | 0.05 | 0.00 | 78 | 1014.5 |
| 20260508055003 | 7 | 326 | 4.8 | 16.1 | 0.00 | 0.05 | 0.00 | 79 | 1014.6 |
| 20260508054503 | 7 | 333 | 4.8 | 16.1 | 0.00 | 0.05 | 0.00 | 79 | 1014.5 |
| 20260508054003 | 7 | 322 | 4.8 | 12.9 | 0.00 | 0.05 | 0.00 | 79 | 1014.5 |
| 20260508053503 | 7 | 305 | 4.8 | 12.9 | 0.00 | 0.05 | 0.00 | 80 | 1014.5 |
| 20260508053003 | 7 | 317 | 4.8 | 12.9 | 0.00 | 0.05 | 0.00 | 79 | 1014.6 |
| 20260508052503 | 7 | 325 | 3.2 | 6.4 | 0.00 | 0.05 | 0.00 | 80 | 1014.5 |
| 20260508052003 | 7 | 330 | 1.6 | 4.8 | 0.00 | 0.05 | 0.00 | 79 | 1014.5 |
| 20260508051503 | 7 | 323 | 3.2 | 12.9 | 0.00 | 0.05 | 0.00 | 80 | 1014.5 |
| 20260508051003 | 7 | 321 | 4.8 | 12.9 | 0.00 | 0.05 | 0.00 | 79 | 1014.4 |
| 20260508050503 | 7 | 316 | 3.2 | 11.3 | 0.00 | 0.05 | 0.00 | 79 | 1014.4 |
| 20260508050045 | 7 | 321 | 3.2 | 11.3 | 0.00 | 0.05 | 0.00 | 79 | 1014.4 |
| 20260508045503 | 8 | 340 | 3.2 | 16.1 | 0.00 | 0.05 | 0.00 | 79 | 1014.3 |
| 20260508045003 | 8 | 355 | 4.8 | 16.1 | 0.00 | 0.05 | 0.00 | 79 | 1014.2 |
| 20260508044503 | 8 | 350 | 4.8 | 14.5 | 0.00 | 0.05 | 0.00 | 78 | 1014.3 |
| 20260508044003 | 8 | 328 | 4.8 | 14.5 | 0.00 | 0.05 | 0.00 | 79 | 1014.3 |
| 20260508043503 | 8 | 322 | 4.8 | 14.5 | 0.00 | 0.05 | 0.00 | 78 | 1014.2 |
| 20260508043003 | 8 | 344 | 4.8 | 14.5 | 0.00 | 0.05 | 0.00 | 79 | 1014.2 |
| 20260508042503 | 8 | 356 | 4.8 | 14.5 | 0.00 | 0.05 | 0.00 | 78 | 1014.1 |
| 20260508042003 | 8 | 333 | 6.4 | 16.1 | 0.00 | 0.05 | 0.00 | 77 | 1014.1 |
| 20260508041504 | 8 | 309 | 6.4 | 16.1 | 0.00 | 0.08 | 0.00 | 77 | 1014.1 |
| 20260508041003 | 8 | 303 | 4.8 | 14.5 | 0.00 | 0.08 | 0.00 | 77 | 1014.1 |
| 20260508040503 | 8 | 309 | 3.2 | 12.9 | 0.00 | 0.08 | 0.00 | 78 | 1014.1 |
| 20260508040003 | 8 | 308 | 4.8 | 11.3 | 0.00 | 0.08 | 0.00 | 78 | 1013.9 |
| 20260508035524 | 8 | 307 | 6.4 | 16.1 | 0.00 | 0.08 | 0.08 | 78 | 1013.8 |
| 20260508035003 | 8 | 320 | 4.8 | 16.1 | 0.00 | 0.08 | 0.08 | 79 | 1014.0 |
| 20260508034503 | 8 | 313 | 4.8 | 16.1 | 0.00 | 0.08 | 0.08 | 79 | 1014.0 |
| 20260508034003 | 8 | 299 | 4.8 | 17.7 | 0.00 | 0.08 | 0.08 | 79 | 1014.1 |
| 20260508033503 | 8 | 297 | 4.8 | 17.7 | 0.00 | 0.08 | 0.08 | 79 | 1014.1 |
| 20260508033003 | 8 | 291 | 4.8 | 12.9 | 0.00 | 0.08 | 0.08 | 79 | 1014.0 |
| 20260508032503 | 8 | 284 | 3.2 | 11.3 | 0.00 | 0.08 | 0.08 | 79 | 1014.0 |
| 20260508032003 | 8 | 278 | 4.8 | 11.3 | 0.00 | 0.08 | 0.08 | 80 | 1014.1 |
| 20260508031503 | 8 | 289 | 4.8 | 11.3 | 0.00 | 0.08 | 0.08 | 81 | 1013.9 |
| 20260508031003 | 8 | 286 | 3.2 | 8.0 | 0.00 | 0.08 | 0.08 | 81 | 1013.8 |
| 20260508030503 | 8 | 274 | 4.8 | 9.7 | 0.00 | 0.08 | 0.08 | 81 | 1013.8 |
| 20260508030003 | 8 | 295 | 4.8 | 16.1 | 0.00 | 0.08 | 0.08 | 81 | 1013.8 |
| 20260508025503 | 8 | 300 | 4.8 | 16.1 | 0.00 | 0.08 | 0.08 | 81 | 1013.6 |
| 20260508025003 | 8 | 302 | 4.8 | 16.1 | 0.00 | 0.08 | 0.08 | 82 | 1013.6 |
| 20260508024503 | 8 | 293 | 4.8 | 16.1 | 0.00 | 0.08 | 0.08 | 82 | 1013.6 |
| 20260508024003 | 8 | 266 | 3.2 | 9.7 | 0.00 | 0.08 | 0.08 | 83 | 1013.7 |
| 20260508023503 | 8 | 269 | 3.2 | 6.4 | 0.00 | 0.08 | 0.08 | 83 | 1013.6 |
| 20260508023003 | 8 | 276 | 3.2 | 6.4 | 0.00 | 0.08 | 0.08 | 83 | 1013.5 |
| 20260508022503 | 8 | 279 | 3.2 | 16.1 | 0.00 | 0.10 | 0.08 | 83 | 1013.6 |
| 20260508022003 | 7 | 279 | 3.2 | 16.1 | 0.00 | 0.10 | 0.08 | 83 | 1013.6 |
| 20260508021503 | 8 | 291 | 1.6 | 6.4 | 0.00 | 0.10 | 0.08 | 82 | 1013.3 |
| 20260508021003 | 8 | 280 | 3.2 | 14.5 | 0.00 | 0.10 | 0.08 | 81 | 1013.3 |
| 20260508020503 | 8 | 276 | 4.8 | 14.5 | 0.00 | 0.10 | 0.08 | 82 | 1013.2 |
| 20260508020003 | 8 | 284 | 3.2 | 9.7 | 0.00 | 0.10 | 0.08 | 81 | 1013.2 |
| 20260508015503 | 8 | 290 | 3.2 | 6.4 | 0.00 | 0.10 | 0.08 | 82 | 1013.1 |
| 20260508015024 | 8 | 283 | 3.2 | 8.0 | 0.00 | 0.10 | 0.08 | 81 | 1013.1 |
| 20260508014504 | 8 | 285 | 3.2 | 14.5 | 0.00 | 0.10 | 0.08 | 81 | 1013.0 |
| 20260508014003 | 8 | 293 | 3.2 | 14.5 | 0.00 | 0.10 | 0.08 | 81 | 1012.9 |
| 20260508013503 | 7 | 290 | 1.6 | 6.4 | 0.00 | 0.10 | 0.08 | 82 | 1012.9 |
| 20260508013024 | 7 | 285 | 1.6 | 4.8 | 0.00 | 0.10 | 0.08 | 82 | 1012.9 |
| 20260508012503 | 8 | 271 | 1.6 | 4.8 | 0.00 | 0.10 | 0.08 | 82 | 1012.8 |
| 20260508012106 | 8 | 265 | 3.2 | 8.0 | 0.00 | 0.13 | 0.08 | 81 | 1012.7 |
| 20260508011503 | 8 | 272 | 1.6 | 12.9 | 0.00 | 0.13 | 0.08 | 81 | 1012.5 |
| 20260508011024 | 8 | 282 | 1.6 | 12.9 | 0.00 | 0.13 | 0.08 | 80 | 1012.4 |
| 20260508010503 | 8 | 288 | 3.2 | 6.4 | 0.00 | 0.13 | 0.08 | 81 | 1012.4 |
| 20260508010003 | 8 | 286 | 3.2 | 11.3 | 0.00 | 0.13 | 0.08 | 81 | 1012.3 |
| 20260508005503 | 8 | 296 | 3.2 | 11.3 | 0.00 | 0.13 | 0.08 | 80 | 1012.3 |
| 20260508005003 | 8 | 323 | 1.6 | 6.4 | 0.00 | 0.13 | 0.08 | 80 | 1012.3 |
| 20260508004503 | 8 | 322 | 3.2 | 8.0 | 0.00 | 0.13 | 0.08 | 80 | 1012.2 |
| 20260508004003 | 8 | 318 | 4.8 | 11.3 | 0.00 | 0.13 | 0.08 | 79 | 1012.2 |
| 20260508003503 | 8 | 311 | 4.8 | 17.7 | 0.00 | 0.13 | 0.08 | 79 | 1012.2 |
| 20260508003003 | 8 | 307 | 4.8 | 17.7 | 0.00 | 0.13 | 0.08 | 78 | 1012.2 |
| 20260508002503 | 8 | 313 | 4.8 | 16.1 | 0.00 | 0.13 | 0.08 | 79 | 1012.3 |
| 20260508002003 | 8 | 314 | 4.8 | 16.1 | 0.00 | 0.13 | 0.08 | 78 | 1012.3 |
| 20260508001503 | 8 | 321 | 4.8 | 8.0 | 0.00 | 0.13 | 0.08 | 78 | 1012.2 |
| 20260508001003 | 8 | 325 | 6.4 | 14.5 | 0.00 | 0.13 | 0.08 | 78 | 1012.2 |
| 20260508000503 | 9 | 307 | 8.0 | 20.9 | 0.00 | 0.13 | 0.08 | 77 | 1012.2 |
| 20260508000004 | 9 | 300 | 9.7 | 20.9 | 0.00 | 0.13 | 0.08 | 77 | 1012.2 |
| 20260507235503 | 9 | 304 | 8.0 | 22.5 | 0.00 | 0.13 | 0.08 | 77 | 1012.2 |
| 20260507235024 | 9 | 306 | 8.0 | 22.5 | 0.00 | 0.13 | 0.08 | 77 | 1012.0 |
| 20260507234503 | 9 | 302 | 9.7 | 22.5 | 0.00 | 0.13 | 0.08 | 78 | 1012.1 |
| 20260507234003 | 9 | 301 | 9.7 | 22.5 | 0.00 | 0.13 | 0.08 | 78 | 1012.2 |
| 20260507233503 | 9 | 298 | 6.4 | 17.7 | 0.00 | 0.13 | 0.08 | 78 | 1012.1 |
| 20260507233003 | 9 | 302 | 8.0 | 16.1 | 0.00 | 0.13 | 0.08 | 78 | 1012.2 |
| 20260507232503 | 9 | 301 | 9.7 | 19.3 | 0.00 | 0.13 | 0.08 | 77 | 1012.2 |
| 20260507232003 | 9 | 291 | 11.3 | 22.5 | 0.00 | 0.13 | 0.08 | 77 | 1012.2 |
| 20260507231503 | 9 | 294 | 11.3 | 22.5 | 0.00 | 0.13 | 0.08 | 77 | 1012.1 |
| 20260507231003 | 9 | 297 | 9.7 | 25.7 | 0.00 | 0.13 | 0.08 | 77 | 1012.0 |
| 20260507230503 | 9 | 294 | 9.7 | 25.7 | 0.00 | 0.13 | 0.08 | 77 | 1012.0 |
| 20260507230004 | 10 | 301 | 9.7 | 20.9 | 0.00 | 0.13 | 0.08 | 78 | 1012.0 |
| 20260507225503 | 10 | 299 | 9.7 | 20.9 | 0.00 | 0.13 | 0.08 | 77 | 1011.9 |
| 20260507225003 | 10 | 289 | 11.3 | 20.9 | 0.00 | 0.13 | 0.08 | 77 | 1011.9 |
| 20260507224504 | 10 | 292 | 11.3 | 25.7 | 0.00 | 0.13 | 0.08 | 77 | 1011.9 |
| 20260507224003 | 10 | 296 | 11.3 | 25.7 | 0.00 | 0.13 | 0.08 | 78 | 1011.9 |
| 20260507223503 | 10 | 298 | 11.3 | 25.7 | 0.00 | 0.13 | 0.08 | 78 | 1011.8 |
| 20260507223003 | 10 | 302 | 11.3 | 25.7 | 0.00 | 0.13 | 0.08 | 79 | 1011.7 |
| 20260507222503 | 10 | 292 | 12.9 | 24.1 | 0.00 | 0.13 | 0.08 | 79 | 1011.6 |
| 20260507222024 | 10 | 290 | 12.9 | 25.7 | 0.00 | 0.13 | 0.08 | 80 | 1011.6 |
| 20260507221503 | 10 | 289 | 16.1 | 32.2 | 0.00 | 0.13 | 0.08 | 80 | 1011.4 |
| 20260507221003 | 10 | 289 | 14.5 | 35.4 | 0.00 | 0.13 | 0.08 | 79 | 1011.2 |
| 20260507220503 | 10 | 296 | 12.9 | 35.4 | 0.00 | 0.13 | 0.08 | 78 | 1011.1 |
| 20260507220003 | 11 | 294 | 12.9 | 27.4 | 0.00 | 0.13 | 0.08 | 78 | 1011.1 |
| 20260507215503 | 11 | 291 | 12.9 | 27.4 | 0.00 | 0.13 | 0.08 | 78 | 1011.1 |
| 20260507215024 | 11 | 291 | 12.9 | 25.7 | 0.00 | 0.13 | 0.08 | 80 | 1011.1 |
| 20260507214503 | 10 | 295 | 12.9 | 24.1 | 0.00 | 0.13 | 0.08 | 83 | 1011.0 |
| 20260507214003 | 10 | 292 | 14.5 | 27.4 | 0.00 | 0.13 | 0.08 | 85 | 1010.9 |
| 20260507213503 | 9 | 292 | 14.5 | 27.4 | 0.00 | 0.13 | 0.08 | 86 | 1011.0 |
| 20260507213003 | 9 | 299 | 14.5 | 25.7 | 0.00 | 0.13 | 0.08 | 87 | 1011.0 |
| 20260507212503 | 9 | 299 | 14.5 | 27.4 | 0.00 | 0.13 | 0.08 | 87 | 1010.8 |
| 20260507212003 | 10 | 300 | 14.5 | 27.4 | 0.00 | 0.13 | 0.08 | 86 | 1010.8 |
| 20260507211503 | 10 | 303 | 14.5 | 27.4 | 0.00 | 0.13 | 0.08 | 85 | 1010.8 |
| 20260507211003 | 10 | 304 | 12.9 | 27.4 | 0.00 | 0.13 | 0.08 | 84 | 1010.8 |
| 20260507210503 | 11 | 306 | 12.9 | 24.1 | 0.00 | 0.13 | 0.08 | 83 | 1010.7 |
| 20260507210003 | 11 | 304 | 11.3 | 22.5 | 0.00 | 0.13 | 0.08 | 81 | 1010.6 |
| 20260507205503 | 12 | 299 | 11.3 | 22.5 | 0.00 | 0.13 | 0.08 | 81 | 1010.3 |
| 20260507205024 | 12 | 301 | 9.7 | 22.5 | 0.00 | 0.13 | 0.08 | 81 | 1010.2 |
| 20260507204503 | 12 | 304 | 9.7 | 20.9 | 0.00 | 0.13 | 0.08 | 81 | 1010.1 |
| 20260507204024 | 13 | 303 | 9.7 | 20.9 | 0.00 | 0.13 | 0.08 | 79 | 1010.2 |
| 20260507203503 | 13 | 304 | 9.7 | 20.9 | 0.00 | 0.13 | 0.08 | 78 | 1010.1 |
| 20260507203024 | 13 | 302 | 11.3 | 24.1 | 0.00 | 0.13 | 0.08 | 78 | 1010.1 |
| 20260507202503 | 13 | 306 | 9.7 | 24.1 | 0.00 | 0.13 | 0.08 | 79 | 1010.1 |
| 20260507202003 | 13 | 307 | 9.7 | 20.9 | 0.00 | 0.13 | 0.08 | 76 | 1010.0 |
| 20260507201503 | 14 | 305 | 9.7 | 20.9 | 0.00 | 0.13 | 0.08 | 76 | 1009.9 |
| 20260507201003 | 15 | 300 | 9.7 | 24.1 | 0.00 | 0.13 | 0.08 | 74 | 1009.8 |
| 20260507200503 | 15 | 292 | 9.7 | 24.1 | 0.00 | 0.13 | 0.08 | 75 | 1009.8 |
| 20260507200045 | 14 | 282 | 8.0 | 24.1 | 0.00 | 0.13 | 0.08 | 77 | 1009.8 |
| 20260507195503 | 14 | 279 | 9.7 | 20.9 | 0.00 | 0.13 | 0.08 | 77 | 1009.9 |
| 20260507195003 | 14 | 282 | 9.7 | 22.5 | 0.00 | 0.13 | 0.08 | 77 | 1010.0 |
| 20260507194503 | 13 | 286 | 11.3 | 27.4 | 0.00 | 0.13 | 0.08 | 78 | 1010.0 |
| 20260507194003 | 13 | 285 | 11.3 | 27.4 | 0.00 | 0.13 | 0.08 | 77 | 1010.3 |
| 20260507193503 | 14 | 275 | 9.7 | 20.9 | 0.00 | 0.13 | 0.08 | 78 | 1010.2 |
| 20260507193003 | 14 | 269 | 8.0 | 19.3 | 0.00 | 0.13 | 0.08 | 78 | 1010.2 |
| 20260507192503 | 14 | 281 | 11.3 | 20.9 | 0.00 | 0.13 | 0.08 | 77 | 1010.3 |
| 20260507192024 | 14 | 289 | 11.3 | 20.9 | 0.00 | 0.13 | 0.08 | 77 | 1010.3 |
| 20260507191503 | 15 | 288 | 11.3 | 24.1 | 0.00 | 0.13 | 0.08 | 75 | 1010.3 |
| 20260507191003 | 15 | 289 | 9.7 | 24.1 | 0.00 | 0.13 | 0.08 | 73 | 1010.3 |
| 20260507190503 | 16 | 288 | 8.0 | 22.5 | 0.00 | 0.13 | 0.08 | 70 | 1010.3 |
| 20260507190004 | 16 | 287 | 8.0 | 14.5 | 0.00 | 0.13 | 0.08 | 69 | 1010.3 |
| 20260507185503 | 17 | 291 | 8.0 | 17.7 | 0.00 | 0.13 | 0.08 | 68 | 1010.4 |
| 20260507185003 | 17 | 294 | 9.7 | 17.7 | 0.00 | 0.13 | 0.08 | 69 | 1010.4 |
| 20260507184503 | 17 | 298 | 11.3 | 22.5 | 0.00 | 0.13 | 0.08 | 74 | 1010.4 |
| 20260507184003 | 16 | 299 | 11.3 | 22.5 | 0.00 | 0.13 | 0.08 | 70 | 1010.3 |
| 20260507183503 | 16 | 299 | 11.3 | 22.5 | 0.00 | 0.13 | 0.08 | 71 | 1010.4 |
| 20260507183003 | 17 | 296 | 12.9 | 24.1 | 0.00 | 0.13 | 0.08 | 71 | 1010.4 |
| 20260507182503 | 17 | 293 | 12.9 | 24.1 | 0.00 | 0.13 | 0.08 | 68 | 1010.4 |
| 20260507182003 | 17 | 286 | 11.3 | 24.1 | 0.00 | 0.13 | 0.08 | 72 | 1010.3 |
| 20260507181503 | 17 | 282 | 11.3 | 27.4 | 0.00 | 0.13 | 0.08 | 72 | 1010.2 |
| 20260507181003 | 17 | 291 | 11.3 | 27.4 | 0.00 | 0.13 | 0.08 | 70 | 1010.3 |
| 20260507180503 | 17 | 299 | 11.3 | 20.9 | 0.00 | 0.13 | 0.08 | 73 | 1010.2 |
| 20260507180003 | 16 | 293 | 9.7 | 19.3 | 0.00 | 0.13 | 0.08 | 76 | 1010.2 |
| 20260507175503 | 16 | 294 | 8.0 | 17.7 | 0.00 | 0.13 | 0.08 | 75 | 1010.2 |
| 20260507175003 | 16 | 315 | 8.0 | 20.9 | 0.00 | 0.13 | 0.08 | 75 | 1010.2 |
| 20260507174503 | 16 | 317 | 9.7 | 24.1 | 0.00 | 0.13 | 0.08 | 74 | 1010.1 |
| 20260507174024 | 16 | 312 | 9.7 | 24.1 | 0.00 | 0.13 | 0.08 | 73 | 1010.1 |
| 20260507173503 | 17 | 310 | 9.7 | 19.3 | 0.00 | 0.13 | 0.08 | 73 | 1010.1 |
| 20260507173003 | 17 | 310 | 9.7 | 20.9 | 0.00 | 0.13 | 0.08 | 72 | 1010.0 |
| 20260507172503 | 17 | 303 | 9.7 | 20.9 | 0.00 | 0.13 | 0.08 | 70 | 1010.0 |
| 20260507172003 | 18 | 295 | 8.0 | 19.3 | 0.00 | 0.13 | 0.08 | 68 | 1009.8 |
| 20260507171503 | 18 | 300 | 11.3 | 22.5 | 0.00 | 0.13 | 0.08 | 66 | 1009.9 |
| 20260507171003 | 19 | 297 | 11.3 | 22.5 | 0.00 | 0.13 | 0.08 | 65 | 1009.8 |
| 20260507170503 | 20 | 296 | 9.7 | 20.9 | 0.00 | 0.13 | 0.08 | 64 | 1009.8 |
| 20260507170003 | 20 | 296 | 9.7 | 20.9 | 0.00 | 0.13 | 0.08 | 69 | 1009.7 |
| 20260507165504 | 20 | 291 | 9.7 | 20.9 | 0.00 | 0.13 | 0.08 | 67 | 1009.8 |
| 20260507165003 | 20 | 290 | 11.3 | 24.1 | 0.00 | 0.13 | 0.08 | 67 | 1009.8 |
| 20260507164503 | 20 | 294 | 12.9 | 24.1 | 0.00 | 0.13 | 0.08 | 67 | 1009.8 |
| 20260507164024 | 19 | 284 | 9.7 | 24.1 | 0.00 | 0.13 | 0.08 | 67 | 1010.0 |
| 20260507163503 | 19 | 260 | 8.0 | 19.3 | 0.00 | 0.13 | 0.08 | 67 | 1010.0 |
| 20260507163003 | 19 | 269 | 11.3 | 24.1 | 0.00 | 0.15 | 0.08 | 68 | 1010.0 |
| 20260507162503 | 18 | 269 | 11.3 | 24.1 | 0.00 | 0.15 | 0.08 | 67 | 1010.0 |
| 20260507162003 | 18 | 271 | 9.7 | 22.5 | 0.00 | 0.15 | 0.08 | 72 | 1010.0 |
| 20260507161503 | 18 | 285 | 9.7 | 22.5 | 0.00 | 0.15 | 0.08 | 70 | 1010.0 |
| 20260507161003 | 18 | 289 | 9.7 | 19.3 | 0.00 | 0.15 | 0.08 | 69 | 1010.0 |
| 20260507160503 | 18 | 290 | 8.0 | 16.1 | 0.00 | 0.15 | 0.08 | 67 | 1010.0 |
| 20260507160003 | 18 | 292 | 6.4 | 16.1 | 0.00 | 0.15 | 0.08 | 67 | 1009.9 |
| 20260507155503 | 19 | 292 | 4.8 | 16.1 | 0.00 | 0.15 | 0.08 | 69 | 1010.0 |
| 20260507155003 | 19 | 305 | 3.2 | 11.3 | 0.00 | 0.15 | 0.08 | 71 | 1009.9 |
| 20260507154504 | 18 | 304 | 4.8 | 11.3 | 0.00 | 0.15 | 0.08 | 70 | 1009.8 |
| 20260507154004 | 18 | 286 | 4.8 | 17.7 | 0.00 | 0.15 | 0.08 | 72 | 1009.9 |
| 20260507153504 | 18 | 279 | 4.8 | 17.7 | 0.00 | 0.15 | 0.08 | 77 | 1009.8 |
| 20260507153003 | 18 | 275 | 4.8 | 22.5 | 0.00 | 0.15 | 0.08 | 77 | 1009.9 |
| 20260507152503 | 18 | 278 | 8.0 | 22.5 | 0.00 | 0.15 | 0.08 | 75 | 1010.0 |
| 20260507152003 | 17 | 287 | 8.0 | 16.1 | 0.00 | 0.15 | 0.08 | 76 | 1010.0 |
| 20260507151504 | 17 | 289 | 6.4 | 16.1 | 0.00 | 0.15 | 0.08 | 74 | 1009.8 |
| 20260507151003 | 18 | 301 | 4.8 | 14.5 | 0.00 | 0.15 | 0.08 | 75 | 1009.8 |
| 20260507150503 | 17 | 343 | 4.8 | 11.3 | 0.00 | 0.15 | 0.08 | 78 | 1009.8 |
| 20260507150003 | 17 | 323 | 3.2 | 11.3 | 0.00 | 0.15 | 0.08 | 77 | 1009.8 |